Regional Weather Roundup
Issued by NWS

Home | Current Version | Previous Version | Graphics & Text | Print | Product List | Glossary On
Versions: 1 2 3 4 5 6 7 8 9 10 11 12 13 14 15 16 17 18 19 20 21 22 23 24 25 26 27
000
ASUS45 KBOU 240007
RWRCO

WEATHER ROUNDUP FOR COLORADO
NATIONAL WEATHER SERVICE DENVER/BOULDER CO
500 PM MST THU FEB 23 2017

NOTE: "FAIR" INDICATES FEW OR NO CLOUDS BELOW 12000 FEET WITH NO
SIGNIFICANT WEATHER AND/OR OBSTRUCTIONS TO VISIBILITY.

COZ001>005-013-030-031-240100-
...NORTHWEST COLORADO...

CITY           SKY/WX    TMP DP  RH WIND       PRES   REMARKS
CRAIG          FAIR      26  16  65 W12       29.67R WCI  16
HAYDEN         FAIR      25  12  58 W7        29.66R WCI  17
MEEKER         LGT SNOW  26  21  81 NE3       29.69R VSB 1
MOUNT WERNER   NOT AVBL
STEAMBOAT SPGS CLOUDY    22  18  84 W3        29.67R
WALDEN         NOT AVBL
$$

COZ006>008-011-240100-
...WEST CENTRAL VALLEYS...

CITY           SKY/WX    TMP DP  RH WIND       PRES   REMARKS
GRAND JUNCTION CLOUDY    35  18  49 NW21      29.73R WCI  24
MONTROSE       FAIR      36  -2  20 W15G26    29.73R
EAGLE          PTCLDY    30  10  43 W15G24    29.70R WCI  19
RIFLE          MOCLDY    31  18  58 W6        29.72R WCI  25
DELTA          FAIR      41   4  21 W10G18    29.73R
NUCLA          FAIR      34   0  23 W14G20    29.77R WCI  24
$$

COZ017>023-064>068-240100-
...SOUTHWEST COLORADO...

CITY           SKY/WX    TMP DP  RH WIND       PRES   REMARKS
DURANGO        FAIR      33   1  25 W21G30    29.73R WCI  21
CORTEZ         FAIR      37   5  26 W13       29.75R
PAGOSA SPRINGS CLOUDY    30  -1  26 W20G29    29.71R WCI  17
TELLURIDE      LGT SNOW  18  10  71 W12       29.71R WCI   5
WOLF CREEK PAS CLOUDY     5  -2  72 SW31G43   29.63R WCI -19
$$

COZ009-010-012-014-032>034-037-058>063-240100-
...CENTRAL COLORADO...

CITY           SKY/WX    TMP DP  RH WIND       PRES   REMARKS
ASPEN          CLOUDY    22  10  60 SE9       29.64R WCI  12
BUENA VISTA    FAIR      24   0  36 SW12G24   29.64R WCI  12
COPPER MTN     CLOUDY     9  -4  56 MISG      29.53R HAZE
BERTHOUD PASS  MOCLDY     0 -11  60 MISG      29.49R HAZE
COTTONWOOD PAS CLOUDY    18   0  45 W14G35    29.60R WCI   4
GUNNISON       FAIR      22  14  71 N14       29.68R WCI   9
KREMMLING      CLOUDY    28  14  54 N8G17     29.65R WCI  20
LEADVILLE      CLOUDY    11   0  61 W7        29.58R WCI   0
MONARCH PASS   CLOUDY     5   1  85 W31G46    29.65R FOG     WCI -19
SALIDA         FAIR      30   3  32 SW9G18    29.73R WCI  21
SUNLIGHT       NOT AVBL
WILKERSON PASS FAIR      14 -15  26 W12G31    29.56R WCI   0
$$

COZ069>075-240100-
...SAN LUIS VALLEY/SANGRE DE CRISTO MOUNTAINS...

CITY           SKY/WX    TMP DP  RH WIND       PRES   REMARKS
ALAMOSA        FAIR      31   5  33 W18       29.66R WCI  19
LA VETA PASS   FAIR      21   3  45 SW29G47   29.56R WCI   3
SAGUACHE       CLOUDY    27   9  46 NW17G24   29.67R WCI  14
$$

COZ035-036-038>040-240100-
...NORTHERN COLORADO FRONT RANGE...

CITY           SKY/WX    TMP DP  RH WIND       PRES   REMARKS
DENVER INTL AP LGT SNOW  23  19  85 N20       29.71R FOG     WCI   8
DMNS CITY PARK   N/A     24  23  95 N13       29.72R WCI  12
AURORA         LGT SNOW  23  22  96 N17G26    29.70R FOG     WCI   9
FRONT RANGE AP NOT AVBL
ERIE MUNI ARPT LGT SNOW  24  21  87 N15       29.73R WCI  12
BOULDER MUN AP LGT SNOW  25  23  93 N12       29.74R WCI  14
CENTENNIAL     SNOW      23  21  92 N18       29.68R VSB 1/2 WCI   9
BROOMFIELD     LGT SNOW  23  21  93 N16G23    29.72R VSB 1   WCI  10
FORT COLLINS   CLOUDY    23  18  81 N16       29.76R WCI  10
LONGMONT       LGT SNOW  27  21  79 N13       29.76R WCI  16
$$

COZ041-046-047-076>085-087-088-240100-
...PIKES PEAK/PALMER DIVIDE AND SOUTHERN FOOTHILLS...

CITY           SKY/WX    TMP DP  RH WIND       PRES   REMARKS
COLO. SPRINGS  MOCLDY    35  20  54 N22G29    29.59R WCI  23
A. F. ACADEMY  FLURRIES  29  22  75 N28G39    29.60R WCI  15
SCHRIEVER AFB  MOCLDY    33  23  68 N17G28    29.59R WCI  22
ELLICOTT       FAIR     N/A N/A N/A MISG      29.58R
FALCON         LGT SNOW  30  22  72 N16G24    29.60R WCI  19
FORT CARSON    FAIR      38  21  49 N13       29.59R
LIMON          CLOUDY    27  25  92 N17G25    29.62R WCI  14
MONUMENT HILL  HVY SNOW  21  21 100 N17G24    29.64R VSB 1/4 WCI   7
TRINIDAD       FAIR      45   0  15 NW26G32   29.58R
$$

COZ042>045-048>051-090-091-240100-
...NORTHEAST COLORADO...

CITY           SKY/WX    TMP DP  RH WIND       PRES   REMARKS
GREELEY ARPT   CLOUDY    24  18  77 N18G24    29.77R WCI  10
AKRON          LGT SNOW  22  19  89 N16       29.69R FOG     WCI   8
BURLINGTON     CLOUDY    29  26  89 N16G28    29.62R WCI  17
WRAY           NOT AVBL
STERLING       LGT SNOW  25  23  93 N12G20    29.72R WCI  14
HOLYOKE        LGT SNOW  28  25  86 N10       29.72R WCI  19
FORT MORGAN    CLOUDY    23  19  87 N16       29.72R WCI   9
$$

COZ086-089-092>099-240100-
...SOUTHEAST COLORADO...

CITY           SKY/WX    TMP DP  RH WIND       PRES   REMARKS
PUEBLO         FAIR      48  -4  11 W26G33    29.57R
LA JUNTA       CLOUDY    48  27  44 N20       29.55R
LAMAR          FAIR      45  31  58 NE17      29.54R
SPRINGFIELD      N/A     48  30  49 N18       29.51R
$$




USA.gov is the U.S. government's official web portal to all federal, state and local government web resources and services.